Regional Weather Roundup
Issued by NWS

Home | Current Version | Previous Version | Text Only | Print | Product List | Glossary On
Versions: 1 2 3 4 5 6 7 8 9 10 11 12 13 14 15 16 17 18 19 20 21 22 23 24 25 26 27 28 29 30 31 32 33 34 35 36 37 38 39 40 41 42 43 44 45 46 47 48 49 50
000
ASUS43 KMPX 240410
RWRMN
WEATHER ROUNDUP FOR MINNESOTA
NATIONAL WEATHER SERVICE TWIN CITIES/CHANHASSEN MN
1100 PM CDT WED APR 23 2014


NOTE: "FAIR" INDICATES FEW OR NO CLOUDS BELOW 12,000 FEET WITH NO
SIGNIFICANT WEATHER AND/OR OBSTRUCTIONS TO VISIBILITY. N/A MEANS
CURRENT SKY AND/OR WEATHER CONDITIONS ARE NOT AVAILABLE.

MNZ060>063-068>070-240500-
   Twin Cities Metro

CITY           SKY/WX    TMP DP  RH WIND       PRES   REMARKS
TWIN CITIES    CLOUDY    43  38  82 E13       29.93R
ST PAUL        CLOUDY    43  38  82 E13       29.95R
CRYSTAL        CLOUDY    43  37  79 E9        29.92S
BLAINE         CLOUDY    45  41  87 E9        29.93S
EDEN PRAIRIE   CLOUDY    44  38  79 E13       29.91R
LAKEVILLE      CLOUDY    41  37  87 E14       29.91R
SOUTH ST PAUL  CLOUDY    44  42  95 SE8       29.93R
LAKE ELMO      CLOUDY    43  37  81 E8        29.96R
$$
MNZ001>005-007-008-013>017-022>024-027-028-240500-
   Northwest Minnesota

CITY           SKY/WX    TMP DP  RH WIND       PRES   REMARKS
BEMIDJI        LGT RAIN  33  32  98 SE7       29.93S WCI  26
HALLOCK        LGT RAIN  39  37  93 SE21G28   29.87F
ROSEAU         RAIN      39  36  87 SE9       29.94F
WARROAD        MIX PCPN  39  36  87 S7        29.96R
THIEF RVR FALL CLOUDY    36  32  87 E18       29.88F
CROOKSTON      CLOUDY    37  37 100 SE20      29.86F
FOSSTON        DRIZZLE   34  32  93 E13G18    29.88F WCI  25
DETROIT LAKES  LGT RAIN  37  36  93 SE17G26   29.83F
MOORHEAD       CLOUDY    43  41  93 SE15G21   29.80F
PARK RAPIDS    LGT RAIN  35  35 100 E12       29.89F WCI  27
$$
MNZ006-009>011-018-025>026-240500-
   North Central Minnesota

CITY           SKY/WX    TMP DP  RH WIND       PRES   REMARKS
BAUDETTE       LGT RAIN  41  35  79 S9        29.97R
FLAG ISLAND    CLOUDY    37  30  75 S8        29.95R
INTL FALLS     CLOUDY    45  24  43 SE8       29.97R
WASKISH        RAIN      37  36  93 E9        29.97R
BIG FORK       RAIN      37  36  93 SE7       29.98S
LONGVILLE      LGT RAIN  36  34  93 SE5       29.94S
GRAND RAPIDS   CLOUDY    36  30  80 SE7       29.98S
CRANE LAKE     CLOUDY    41  19  42 SE5       30.03R
ORR            CLOUDY    43  19  39 SE7       29.98R
COOK           CLOUDY    43  21  42 SE8       30.01S
$$
MNZ012-019>021-037-240500-
   Northeast Minnesota

CITY           SKY/WX    TMP DP  RH WIND       PRES   REMARKS
DULUTH         LGT RAIN  36  31  82 E9        30.01S
ELY            CLOUDY    39  21  48 CALM      30.01S
HIBBING        LGT SNOW  34  32  92 SE9       30.00F FOG     WCI  27
EVELETH        LGT SNOW  34  32  93 SE10      30.03S WCI  26
DULUTH HARBOR  MIX PCPN  34  30  86 CALM      30.05F
TWO HARBORS    RAIN      37  27  65 CALM      30.03R
SILVER BAY     CLOUDY    39  27  60 E5        30.03R
GRAND MARAIS     N/A     40  26  57 NE6       30.06S
G MARAIS ARPRT CLOUDY    37  18  44 E6        30.04S
$$
MNZ029>031-032-039>041-046>048-054>057-064-240500-
   West Central Minnesota

CITY           SKY/WX    TMP DP  RH WIND       PRES   REMARKS
FERGUS FALLS   CLOUDY    41  34  75 SE17G30   29.80S
WHEATON        CLOUDY    43  39  87 SE21G28   29.81R
MORRIS         CLOUDY    41  36  81 SE24G30   29.79F
ALEXANDRIA     CLOUDY    40  36  86 E18G28    29.84S
ELBOW LAKE     CLOUDY    40  35  82 SE17G28   29.81S
WADENA         DRIZZLE   37  36  93 E14       29.88R
GLENWOOD       MOCLDY    39  37  93 E18G25    29.85R
APPLETON       CLOUDY    43  37  81 SE20      29.79F
BENSON         DRIZZLE   43  36  75 SE15G23   29.82S
ORTONVILLE     MOCLDY    41  36  81 SE12G20   29.78R
MADISON        CLOUDY    46  39  76 SE20G25   29.78S
WILLMAR        CLOUDY    43  36  75 E18       29.86S
$$
MNZ033>034-036-042>043-049>051-058-059-240500-
   Central Minnesota

CITY           SKY/WX    TMP DP  RH WIND       PRES   REMARKS
ST CLOUD       CLOUDY    42  37  82 E9G17     29.91F
SAUK CENTRE    CLOUDY    39  36  89 E16G22    29.88R
PAYNESVILLE    CLOUDY    40  37  86 E10G20    29.88S
AITKIN         LGT RAIN  39  34  81 E7        29.94F
PINE RIVER     LGT RAIN  36  36 100 E8        29.97R
BRAINERD       CLOUDY    42  36  79 E9        29.94F HAZE
STAPLES        CLOUDY    37  36  93 SE9G18    29.90R
LONG PRAIRIE   CLOUDY    37  36  93 E10G24    29.88S
LITTLE FALLS   CLOUDY    37  36  93 E15G21    29.89F
LITCHFIELD     CLOUDY    43  39  87 E14G21    29.89F
BUFFALO        CLOUDY    42  37  83 E7        29.94R
MAPLE LAKE     CLOUDY    42  39  91 E8        29.92S
$$
MNZ037-044-045-052-053-240500-
   East Central Minnesota

CITY           SKY/WX    TMP DP  RH WIND       PRES   REMARKS
PRINCETON      CLOUDY    41  37  87 E9        29.95R
MORA           DRIZZLE   36  34  93 E7        29.99S
CAMBRIDGE      CLOUDY    43  36  75 E6        29.93F
RUSH CITY      CLOUDY    39  37  91 E12       29.98F
MOOSE LAKE     LGT RAIN  37  36  93 E6        29.98F
HINCKLEY       LGT RAIN  39  37  93 E7        29.99S
CLOQUET        DRIZZLE   36  34  93 SE5       30.00F
MCGREGOR       CLOUDY    37  36  93 E9        29.97F
$$
MNZ071>073-080-081-089-090-097-098-240500-
   Southwest Minnesota

CITY           SKY/WX    TMP DP  RH WIND       PRES   REMARKS
MONTEVIDEO     LGT RAIN  43  39  87 SE20      29.82F
GRANITE FALLS  DRIZZLE   43  37  77 E13G23    29.82F
CANBY          LGT RAIN  44  39  83 SE16G22   29.77F
MARSHALL       CLOUDY    45  36  70 SE16      29.77S
REDWOOD FALLS  CLOUDY    44  37  76 SE15G24   29.82S
OLIVIA         CLOUDY    43  36  75 E16G22    29.84S
PIPESTONE      CLOUDY    45  37  76 SE17      29.70F
WINDOM         LGT RAIN  43  39  87 SE17      29.79F
WORTHINGTON    CLOUDY    43  36  75 E13       29.79S
JACKSON        LGT RAIN  43  37  81 E14       29.80S
TRACY          CLOUDY    45  38  77 SE13G21   29.78S
SLAYTON        CLOUDY    42  38  86 SE20      29.75F
$$
MNZ065>067-074>077-082>085-091>093-240500-
   South Central Minnesota

CITY           SKY/WX    TMP DP  RH WIND       PRES   REMARKS
MANKATO        CLOUDY    45  36  70 SE20G26   29.86F
NEW ULM        CLOUDY    45  37  76 SE13G20   29.84S
ST JAMES       CLOUDY    45  37  76 E16       29.83F
FAIRMONT       CLOUDY    45  36  70 SE15      29.83F
GLENCOE        CLOUDY    43  36  75 E10       29.89R
FARIBAULT      CLOUDY    46  34  61 E16G24    29.90F
OWATONNA       CLOUDY    45  36  70 SE17      29.89F
WASECA         CLOUDY    41  32  70 E18G24    29.89F
ALBERT LEA     CLOUDY    45  37  76 SE18      29.86F
$$
MNZ078>079-086>088-094>096-240500-
   Southeast Minnesota

CITY           SKY/WX    TMP DP  RH WIND       PRES   REMARKS
ROCHESTER      CLOUDY    44  33  65 SE22G29   29.92R
RED WING       CLOUDY    45  37  76 SE12      29.94R
STANTON        CLOUDY    44  37  75 SE8       29.91S
DODGE CENTER   CLOUDY    46  36  66 SE17G24   29.91R
WINONA         CLOUDY    43  39  87 SE9       29.97S
AUSTIN         DRIZZLE   43  37  81 SE14G20   29.89S
PRESTON        CLOUDY    45  36  71 SE16G23   29.93R
$$
ABBREVIATIONS USED IN REMARKS
   TC - TEMPERATURES IN CELSIUS
  WCI - WIND CHILL INDEX
   HX - HEAT INDEX
  VSB - VISIBILITY
$$


USA.gov is the U.S. government's official web portal to all federal, state and local government web resources and services.